Regional Weather Roundup
Issued by NWS Midland/Odessa, TX

Skip options and go directly to product.
Home | Oldest Version | Previous Version | Current Version | All | Text Only | Save Text | Print | Product List | Glossary On

Skip product version selection by date and time.   
515
ASUS44 KMAF 311801
RWRMAF
MIDLAND AREA WEATHER ROUNDUP
NATIONAL WEATHER SERVICE MIDLAND TX
100 PM CDT TUE MAY 31 2016

...IN SOUTHWEST TEXAS AND SOUTHEAST NEW MEXICO...

CITY           SKY/WX    TMP DP  RH WIND       PRES   REMARKS
ALPINE         SUNNY     77  50  38 SW14      30.06S
ANDREWS        FAIR      74  57  54 E5        29.99S
ARTESIA        MOSUNNY   79  55  44 SE10      29.94F
BIG SPRING     PTSUNNY   77  59  53 SW6       29.97F
CARLSBAD       SUNNY     83  50  31 SE8       29.92S
DRYDEN           N/A     74  65  73 E6        29.95F
FORT STOCKTON  NOT AVBL
GUAD PASS      NOT AVBL
HOBBS          MOSUNNY   77  50  38 SW12G17   29.99R
MARFA          SUNNY     74  54  49 S13       30.05F
MIDLAND AIRPK  DRIZZLE   80  56  43 S7        29.97S
MIDLAND INTL   CLOUDY    79  54  41 S9        29.96S
ODESSA         CLOUDY    75  55  49 S10       29.98S
PECOS          SUNNY     82  55  39 SW7       29.90S
PRESIDIO       FAIR      76  57  51 SE5       29.96F
SEMINOLE       PTSUNNY   75  55  49 SE3       29.99S
SNYDER           N/A     78  65  64 N9G17     29.93F
WINK           MOSUNNY   83  52  34 VRB5      29.92R
$$
...OTHER STATIONS IN TEXAS...

CITY           SKY/WX    TMP DP  RH WIND       PRES   REMARKS
ABILENE        PTSUNNY   81  68  64 S8        29.88F
AMARILLO       CLOUDY    72  52  49 E10       30.03F
AUSTIN         TSTM      79  74  84 S10       29.87F
BROWNSVILLE    MOSUNNY   87  74  64 S21G28    29.86F
CORPUS CHRISTI PTSUNNY   88  76  67 SE20G25   29.86S
DALLAS FTW     CLOUDY    84  69  60 S5        29.85F
DEL RIO        LGT RAIN  74  71  91 W12       29.90F
EL PASO        MOSUNNY   81  52  36 SW10      29.96F
HOUSTON INT    CLOUDY    84  68  58 SE10      29.90F
LUBBOCK        MOSUNNY   76  56  49 E8        29.97F
SAN ANGELO     CLOUDY    83  68  60 SW13      29.90F
SAN ANTONIO    CLOUDY    83  73  72 SE15      29.85F
WACO           PTSUNNY   85  71  63 S13       29.86F
WICHITA FALLS  NOT AVBL
$$
...OTHER LOCATIONS IN NEW MEXICO...

CITY           SKY/WX    TMP DP  RH WIND       PRES   REMARKS
ALAMAGORDO     SUNNY     81  46  30 S12       29.98F
ALBUQUERQUE    CLOUDY    75  42  30 SW7       30.03F
CANNON AFB     NOT AVBL
CLOVIS         MOSUNNY   73  52  46 E21       30.03F
HOLLOMAN AFB   MOSUNNY   79  47  32 S6        29.96F
ROSWELL        MOSUNNY   81  49  32 VRB6      29.94F
RUIDOSO          N/A     68  39  34 NE7G16    30.12F THUNDER
SANTA FE       SUNNY     76  31  19 MISG      30.06F
TRUTH OR CONSE SUNNY     78  45  30 S9        29.98F
TUCUMCARI      MOSUNNY   76  51  41 SE15      29.99F
$$

USA.gov is the U.S. government's official web portal to all federal, state and local government web resources and services.